Total_Precipitation_Accumulation
0.00 0.00 0.01 0.01 0.02 0.02 0.02 0.05 0.12 0.20 0.13 0.13 0.24 0.44 0.54 0.61 0.67 0.84 1.01 1.00 1.07 1.18 1.52 1.96 2.43 2.94 3.60 4.47 5.42 5.79 5.49 4.91 4.45 3.99 3.46 3.05 2.69 2.43 2.29 2.00 1.65 1.51 1.48 1.48
0.01 0.02 0.02 0.02 0.02 0.04 0.05 0.07 0.13 0.17 0.11 0.13 0.21 0.43 0.65 0.78 0.88 0.85 0.91 1.00 0.99 1.19 1.59 2.08 2.64 3.06 3.40 3.94 4.70 4.97 4.59 3.93 3.34 3.03 2.84 2.60 2.46 2.14 1.90 1.77 1.62 1.37 1.34 1.35
0.01 0.03 0.02 0.02 0.02 0.05 0.07 0.08 0.12 0.15 0.08 0.13 0.21 0.52 0.83 0.96 0.81 0.66 0.58 0.70 0.75 0.92 1.44 2.16 2.66 2.92 3.20 3.42 3.42 3.51 3.38 2.86 2.50 2.38 2.34 2.26 2.27 2.05 1.77 1.61 1.43 1.24 1.17 1.12
0.01 0.02 0.01 0.02 0.03 0.04 0.07 0.05 0.05 0.05 0.07 0.21 0.31 0.81 1.07 0.99 0.85 0.67 0.52 0.53 0.57 0.79 1.27 2.02 2.27 2.34 2.43 2.54 2.36 2.35 2.41 2.23 2.14 2.04 2.01 1.85 1.67 1.58 1.46 1.44 1.36 1.24 1.17 1.09
0.02 0.02 0.02 0.02 0.03 0.04 0.05 0.04 0.04 0.07 0.11 0.26 0.44 0.77 1.08 0.95 0.93 0.69 0.50 0.48 0.58 0.68 0.97 1.32 1.36 1.46 1.55 1.65 1.70 1.86 2.08 2.08 1.97 1.91 1.98 1.95 1.65 1.48 1.39 1.37 1.41 1.28 1.16 1.09
0.04 0.04 0.03 0.03 0.02 0.03 0.04 0.05 0.11 0.23 0.34 0.66 0.67 0.74 1.11 0.98 0.78 0.54 0.44 0.48 0.44 0.47 0.67 0.86 0.92 0.94 1.00 1.07 1.21 1.41 1.77 1.90 1.81 1.75 1.77 1.73 1.63 1.56 1.42 1.28 1.26 1.24 1.16 1.14
0.10 0.08 0.08 0.06 0.05 0.06 0.05 0.09 0.26 0.60 1.00 1.12 0.69 0.72 1.03 0.67 0.46 0.34 0.29 0.32 0.35 0.47 0.58 0.70 0.82 0.83 0.77 0.76 0.88 1.07 1.30 1.41 1.45 1.51 1.58 1.62 1.66 1.59 1.42 1.30 1.22 1.20 1.09 1.07
0.14 0.15 0.11 0.07 0.05 0.06 0.07 0.09 0.18 0.36 0.47 0.59 0.59 0.98 1.11 0.57 0.38 0.27 0.21 0.22 0.35 0.43 0.44 0.47 0.54 0.53 0.52 0.60 0.70 0.85 0.97 1.04 1.13 1.21 1.33 1.44 1.44 1.43 1.34 1.36 1.28 1.19 1.08 1.05
0.06 0.06 0.04 0.04 0.06 0.06 0.06 0.06 0.07 0.08 0.14 0.36 0.66 0.90 0.83 0.52 0.34 0.24 0.19 0.19 0.30 0.32 0.30 0.28 0.28 0.29 0.35 0.50 0.62 0.69 0.77 0.84 0.93 1.02 1.17 1.27 1.30 1.29 1.32 1.31 1.20 1.14 1.15 1.08
0.03 0.03 0.03 0.04 0.05 0.07 0.07 0.06 0.06 0.05 0.15 0.33 0.60 0.90 0.91 0.59 0.41 0.30 0.21 0.20 0.27 0.26 0.23 0.22 0.20 0.19 0.21 0.26 0.39 0.54 0.62 0.75 0.89 0.95 0.97 1.00 1.15 1.13 1.16 1.13 1.06 1.11 1.13 1.09
0.02 0.02 0.02 0.03 0.05 0.07 0.06 0.06 0.06 0.06 0.08 0.19 0.45 0.68 0.57 0.42 0.27 0.23 0.21 0.21 0.26 0.27 0.26 0.20 0.18 0.17 0.16 0.18 0.27 0.38 0.47 0.60 0.70 0.73 0.77 0.89 0.98 0.99 0.98 0.98 0.94 0.98 1.00 1.02
0.03 0.02 0.02 0.06 0.07 0.07 0.06 0.06 0.07 0.09 0.09 0.13 0.24 0.34 0.28 0.29 0.22 0.21 0.21 0.23 0.30 0.37 0.35 0.27 0.23 0.19 0.23 0.23 0.22 0.29 0.33 0.36 0.42 0.51 0.58 0.71 0.86 0.87 0.86 0.88 0.99 1.03 1.00 0.93
0.03 0.02 0.04 0.14 0.20 0.15 0.08 0.06 0.09 0.10 0.10 0.12 0.27 0.40 0.26 0.23 0.26 0.29 0.25 0.30 0.31 0.30 0.32 0.41 0.38 0.25 0.27 0.23 0.22 0.24 0.25 0.29 0.34 0.40 0.47 0.58 0.72 0.84 0.88 0.93 0.98 1.04 1.03 0.97
0.05 0.04 0.05 0.16 0.22 0.22 0.17 0.13 0.12 0.12 0.12 0.11 0.19 0.35 0.29 0.26 0.33 0.34 0.26 0.30 0.31 0.29 0.29 0.45 0.50 0.28 0.23 0.23 0.23 0.24 0.27 0.30 0.33 0.38 0.48 0.57 0.66 0.80 0.92 0.98 1.01 1.04 1.08 1.07
0.06 0.06 0.05 0.05 0.10 0.16 0.19 0.15 0.13 0.10 0.10 0.12 0.14 0.24 0.32 0.41 0.40 0.34 0.33 0.36 0.31 0.33 0.30 0.30 0.34 0.26 0.25 0.25 0.26 0.27 0.30 0.34 0.36 0.43 0.51 0.57 0.66 0.72 0.80 0.95 1.04 1.14 1.20 1.13
0.09 0.08 0.07 0.06 0.10 0.12 0.13 0.16 0.12 0.08 0.07 0.08 0.11 0.22 0.33 0.36 0.42 0.39 0.34 0.32 0.36 0.41 0.34 0.35 0.40 0.37 0.35 0.36 0.34 0.29 0.35 0.44 0.51 0.59 0.63 0.66 0.74 0.82 0.85 0.92 0.96 1.12 1.19 1.25
0.16 0.16 0.16 0.15 0.15 0.15 0.16 0.15 0.11 0.09 0.10 0.11 0.13 0.19 0.30 0.40 0.45 0.46 0.46 0.41 0.43 0.52 0.51 0.59 0.66 0.59 0.50 0.45 0.42 0.42 0.49 0.57 0.64 0.73 0.84 0.90 0.95 1.04 1.07 1.09 1.08 1.13 1.27 1.37
0.25 0.26 0.23 0.21 0.24 0.28 0.18 0.14 0.13 0.11 0.13 0.14 0.19 0.26 0.34 0.47 0.51 0.55 0.63 0.61 0.55 0.52 0.56 0.65 0.70 0.71 0.67 0.63 0.59 0.63 0.69 0.78 0.91 1.00 1.11 1.23 1.30 1.36 1.43 1.49 1.46 1.47 1.51 1.60
0.27 0.36 0.34 0.32 0.38 0.32 0.24 0.21 0.20 0.22 0.28 0.28 0.36 0.51 0.60 0.60 0.70 0.81 0.73 0.65 0.62 0.62 0.62 0.75 0.74 0.73 0.74 0.84 0.85 0.83 0.87 0.95 1.14 1.31 1.42 1.52 1.59 1.63 1.65 1.65 1.71 1.77 1.86 1.87
0.32 0.34 0.43 0.39 0.44 0.45 0.41 0.36 0.35 0.43 0.72 0.60 0.64 0.66 0.63 0.63 0.84 0.85 0.64 0.58 0.59 0.61 0.70 0.79 0.84 0.83 0.88 1.03 1.06 1.07 1.16 1.25 1.31 1.37 1.47 1.65 1.79 1.86 1.83 1.85 1.95 2.09 2.21 2.17
0.55 0.56 0.51 0.47 0.49 0.45 0.45 0.43 0.49 0.84 1.13 0.92 0.86 0.81 0.79 0.88 0.89 0.87 0.73 0.62 0.61 0.62 0.69 0.78 0.83 0.88 0.92 1.06 1.16 1.32 1.47 1.53 1.55 1.58 1.64 1.72 1.83 1.94 1.95 2.00 2.04 2.15 2.26 2.26
0.76 0.77 0.75 0.69 0.78 0.79 0.53 0.56 0.84 1.07 0.90 0.92 1.04 1.08 1.06 1.01 0.87 0.75 0.67 0.62 0.58 0.58 0.60 0.68 0.83 0.92 0.99 1.11 1.33 1.50 1.63 1.75 1.83 1.84 1.92 1.91 1.95 1.91 1.85 1.98 2.08 2.17 2.27 2.23
0.88 0.88 0.90 0.92 1.00 0.89 0.69 0.77 0.78 0.77 0.88 0.93 0.98 1.10 1.13 1.06 1.06 0.91 0.82 0.78 0.69 0.63 0.63 0.68 0.79 0.90 0.98 1.06 1.26 1.57 1.61 1.63 1.68 1.75 1.79 1.86 1.88 1.90 1.91 1.98 2.07 2.19 2.21 2.18
0.92 0.85 0.93 1.05 1.06 0.96 0.88 0.89 0.88 0.86 0.92 0.92 0.96 0.99 1.02 1.00 1.09 1.06 0.91 0.77 0.70 0.65 0.63 0.66 0.74 0.85 0.92 0.88 0.97 1.12 1.25 1.33 1.37 1.42 1.47 1.50 1.60 1.69 1.84 2.01 2.04 2.11 2.18 2.20
0.91 0.87 0.97 1.23 1.32 1.32 1.21 1.13 1.10 1.01 1.08 1.13 1.06 1.04 1.07 0.95 0.97 0.99 0.84 0.71 0.62 0.58 0.55 0.59 0.70 0.73 0.76 0.82 0.80 0.83 0.90 1.08 1.19 1.22 1.26 1.35 1.48 1.59 1.76 1.96 2.06 1.99 2.00 2.13
1.02 0.98 1.03 1.26 1.27 1.42 1.45 1.26 1.15 1.05 1.09 1.13 1.09 1.02 0.96 0.88 0.85 0.76 0.65 0.57 0.55 0.53 0.55 0.60 0.66 0.65 0.64 0.71 0.72 0.73 0.83 1.01 1.14 1.14 1.17 1.21 1.26 1.37 1.48 1.62 1.70 1.64 1.45 1.48